Year,Month,Day,Hour,Minute,Value (Times are PST for insolation in W/m^2)
2013,06,28,00,00,0.00
2013,06,28,00,01,0.00
2013,06,28,00,02,0.00
2013,06,28,00,03,0.00
2013,06,28,00,04,0.00
2013,06,28,00,05,0.00
2013,06,28,00,06,0.00
2013,06,28,00,07,0.00
2013,06,28,00,08,0.00
2013,06,28,00,09,0.00
2013,06,28,00,10,0.00
2013,06,28,00,11,0.00
2013,06,28,00,12,0.00
2013,06,28,00,13,0.00
2013,06,28,00,14,0.00
2013,06,28,00,15,0.00
2013,06,28,00,16,0.00
2013,06,28,00,17,0.00
2013,06,28,00,18,0.00
2013,06,28,00,19,0.00
2013,06,28,00,20,0.00
2013,06,28,00,21,0.00
2013,06,28,00,22,0.00
2013,06,28,00,23,0.00
2013,06,28,00,24,0.00
2013,06,28,00,25,0.00
2013,06,28,00,26,0.00
2013,06,28,00,27,0.00
2013,06,28,00,28,0.00
2013,06,28,00,29,0.00
2013,06,28,00,30,0.00
2013,06,28,00,31,0.00
2013,06,28,00,32,0.00
2013,06,28,00,33,0.00
2013,06,28,00,34,0.00
2013,06,28,00,35,0.00
2013,06,28,00,36,0.00
2013,06,28,00,37,0.00
2013,06,28,00,38,0.00
2013,06,28,00,39,0.00
2013,06,28,00,40,0.00
2013,06,28,00,41,0.00
2013,06,28,00,42,0.00
2013,06,28,00,43,0.00
2013,06,28,00,44,0.00
2013,06,28,00,45,0.00
2013,06,28,00,46,0.00
2013,06,28,00,47,0.00
2013,06,28,00,48,0.00
2013,06,28,00,49,0.00
2013,06,28,00,50,0.00
2013,06,28,00,51,0.00
2013,06,28,00,52,0.00
2013,06,28,00,53,0.00
2013,06,28,00,54,0.00
2013,06,28,00,55,0.00
2013,06,28,00,56,0.00
2013,06,28,00,57,0.00
2013,06,28,00,58,0.00
2013,06,28,00,59,0.00
2013,06,28,01,00,0.00
2013,06,28,01,01,0.00
2013,06,28,01,02,0.00
2013,06,28,01,03,0.00
2013,06,28,01,04,0.00
2013,06,28,01,05,0.00
2013,06,28,01,06,0.00
2013,06,28,01,07,0.00
2013,06,28,01,08,0.00
2013,06,28,01,09,0.00
2013,06,28,01,10,0.00
2013,06,28,01,11,0.00
2013,06,28,01,12,0.00
2013,06,28,01,13,0.00
2013,06,28,01,14,0.00
2013,06,28,01,15,0.00
2013,06,28,01,16,0.00
2013,06,28,01,17,0.00
2013,06,28,01,18,0.00
2013,06,28,01,19,0.00
2013,06,28,01,20,0.00
2013,06,28,01,21,0.00
2013,06,28,01,22,0.00
2013,06,28,01,23,0.00
2013,06,28,01,24,0.00
2013,06,28,01,25,0.00
2013,06,28,01,26,0.00
2013,06,28,01,27,0.00
2013,06,28,01,28,0.00
2013,06,28,01,29,0.00
2013,06,28,01,30,0.00
2013,06,28,01,31,0.00
2013,06,28,01,32,0.00
2013,06,28,01,33,0.00
2013,06,28,01,34,0.00
2013,06,28,01,35,0.00
2013,06,28,01,36,0.00
2013,06,28,01,37,0.00
2013,06,28,01,38,0.00
2013,06,28,01,39,0.00
2013,06,28,01,40,0.00
2013,06,28,01,41,0.00
2013,06,28,01,42,0.00
2013,06,28,01,43,0.00
2013,06,28,01,44,0.00
2013,06,28,01,45,0.00
2013,06,28,01,46,0.00
2013,06,28,01,47,0.00
2013,06,28,01,48,0.00
2013,06,28,01,49,0.00
2013,06,28,01,50,0.00
2013,06,28,01,51,0.00
2013,06,28,01,52,0.00
2013,06,28,01,53,0.00
2013,06,28,01,54,0.00
2013,06,28,01,55,0.00
2013,06,28,01,56,0.00
2013,06,28,01,57,0.00
2013,06,28,01,58,0.00
2013,06,28,01,59,0.00
2013,06,28,02,00,0.00
2013,06,28,02,01,0.00
2013,06,28,02,02,0.00
2013,06,28,02,03,0.00
2013,06,28,02,04,0.00
2013,06,28,02,05,0.00
2013,06,28,02,06,0.00
2013,06,28,02,07,0.00
2013,06,28,02,08,0.00
2013,06,28,02,09,0.00
2013,06,28,02,10,0.00
2013,06,28,02,11,0.00
2013,06,28,02,12,0.00
2013,06,28,02,13,0.00
2013,06,28,02,14,0.00
2013,06,28,02,15,0.00
2013,06,28,02,16,0.00
2013,06,28,02,17,0.00
2013,06,28,02,18,0.00
2013,06,28,02,19,0.00
2013,06,28,02,20,0.00
2013,06,28,02,21,0.00
2013,06,28,02,22,0.00
2013,06,28,02,23,0.00
2013,06,28,02,24,0.00
2013,06,28,02,25,0.00
2013,06,28,02,26,0.00
2013,06,28,02,27,0.00
2013,06,28,02,28,0.00
2013,06,28,02,29,0.00
2013,06,28,02,30,0.00
2013,06,28,02,31,0.00
2013,06,28,02,32,0.00
2013,06,28,02,33,0.00
2013,06,28,02,34,0.00
2013,06,28,02,35,0.00
2013,06,28,02,36,0.00
2013,06,28,02,37,0.00
2013,06,28,02,38,0.00
2013,06,28,02,39,0.00
2013,06,28,02,40,0.00
2013,06,28,02,41,0.00
2013,06,28,02,42,0.00
2013,06,28,02,43,0.00
2013,06,28,02,44,0.00
2013,06,28,02,45,0.00
2013,06,28,02,46,0.00
2013,06,28,02,47,0.00
2013,06,28,02,48,0.00
2013,06,28,02,49,0.00
2013,06,28,02,50,0.00
2013,06,28,02,51,0.00
2013,06,28,02,52,0.00
2013,06,28,02,53,0.00
2013,06,28,02,54,0.00
2013,06,28,02,55,0.00
2013,06,28,02,56,0.00
2013,06,28,02,57,0.00
2013,06,28,02,58,0.00
2013,06,28,02,59,0.00
2013,06,28,03,00,0.00
2013,06,28,03,01,0.00
2013,06,28,03,02,0.00
2013,06,28,03,03,0.00
2013,06,28,03,04,0.00
2013,06,28,03,05,0.00
2013,06,28,03,06,0.00
2013,06,28,03,07,0.00
2013,06,28,03,08,0.00
2013,06,28,03,09,0.00
2013,06,28,03,10,0.00
2013,06,28,03,11,0.00
2013,06,28,03,12,0.00
2013,06,28,03,13,0.00
2013,06,28,03,14,0.00
2013,06,28,03,15,0.00
2013,06,28,03,16,0.00
2013,06,28,03,17,0.00
2013,06,28,03,18,0.00
2013,06,28,03,19,0.00
2013,06,28,03,20,0.00
2013,06,28,03,21,0.00
2013,06,28,03,22,0.00
2013,06,28,03,23,0.00
2013,06,28,03,24,0.00
2013,06,28,03,25,0.00
2013,06,28,03,26,0.00
2013,06,28,03,27,0.00
2013,06,28,03,28,0.00
2013,06,28,03,29,0.00
2013,06,28,03,30,0.00
2013,06,28,03,31,0.00
2013,06,28,03,32,0.00
2013,06,28,03,33,0.00
2013,06,28,03,34,0.00
2013,06,28,03,35,0.00
2013,06,28,03,36,0.00
2013,06,28,03,37,0.00
2013,06,28,03,38,0.00
2013,06,28,03,39,0.00
2013,06,28,03,40,0.00
2013,06,28,03,41,0.00
2013,06,28,03,42,0.00
2013,06,28,03,43,0.00
2013,06,28,03,44,0.00
2013,06,28,03,45,0.00
2013,06,28,03,46,0.00
2013,06,28,03,47,0.00
2013,06,28,03,48,0.00
2013,06,28,03,49,0.00
2013,06,28,03,50,0.00
2013,06,28,03,51,0.00
2013,06,28,03,52,0.00
2013,06,28,03,53,0.00
2013,06,28,03,54,0.00
2013,06,28,03,55,0.00
2013,06,28,03,56,0.00
2013,06,28,03,57,0.00
2013,06,28,03,58,0.00
2013,06,28,03,59,0.00
2013,06,28,04,00,0.00
2013,06,28,04,01,0.00
2013,06,28,04,02,0.00
2013,06,28,04,03,0.00
2013,06,28,04,04,0.00
2013,06,28,04,05,0.00
2013,06,28,04,06,0.00
2013,06,28,04,07,0.00
2013,06,28,04,08,0.00
2013,06,28,04,09,0.00
2013,06,28,04,10,0.00
2013,06,28,04,11,0.00
2013,06,28,04,12,0.00
2013,06,28,04,13,0.00
2013,06,28,04,14,0.00
2013,06,28,04,15,0.00
2013,06,28,04,16,0.00
2013,06,28,04,17,0.00
2013,06,28,04,18,0.00
2013,06,28,04,19,0.00
2013,06,28,04,20,0.00
2013,06,28,04,21,0.00
2013,06,28,04,22,0.00
2013,06,28,04,23,0.00
2013,06,28,04,24,0.00
2013,06,28,04,25,0.00
2013,06,28,04,26,0.00
2013,06,28,04,27,0.00
2013,06,28,04,28,0.00
2013,06,28,04,29,0.00
2013,06,28,04,30,0.00
2013,06,28,04,31,0.00
2013,06,28,04,32,0.00
2013,06,28,04,33,0.00
2013,06,28,04,34,0.00
2013,06,28,04,35,0.00
2013,06,28,04,36,0.00
2013,06,28,04,37,0.00
2013,06,28,04,38,0.00
2013,06,28,04,39,0.00
2013,06,28,04,40,0.00
2013,06,28,04,41,0.00
2013,06,28,04,42,0.00
2013,06,28,04,43,0.00
2013,06,28,04,44,0.00
2013,06,28,04,45,0.00
2013,06,28,04,46,0.00
2013,06,28,04,47,0.00
2013,06,28,04,48,0.00
2013,06,28,04,49,0.00
2013,06,28,04,50,0.00
2013,06,28,04,51,0.00
2013,06,28,04,52,0.00
2013,06,28,04,53,0.00
2013,06,28,04,54,0.00
2013,06,28,04,55,0.00
2013,06,28,04,56,0.00
2013,06,28,04,57,0.00
2013,06,28,04,58,0.00
2013,06,28,04,59,0.00
2013,06,28,05,00,0.00
2013,06,28,05,01,0.00
2013,06,28,05,02,0.00
2013,06,28,05,03,0.00
2013,06,28,05,04,0.00
2013,06,28,05,05,0.00
2013,06,28,05,06,0.00
2013,06,28,05,07,0.00
2013,06,28,05,08,0.00
2013,06,28,05,09,0.00
2013,06,28,05,10,0.00
2013,06,28,05,11,0.00
2013,06,28,05,12,0.00
2013,06,28,05,13,0.00
2013,06,28,05,14,0.00
2013,06,28,05,15,0.00
2013,06,28,05,16,0.00
2013,06,28,05,17,0.00
2013,06,28,05,18,0.00
2013,06,28,05,19,0.00
2013,06,28,05,20,0.00
2013,06,28,05,21,0.00
2013,06,28,05,22,0.00
2013,06,28,05,23,0.00
2013,06,28,05,24,2.90
2013,06,28,05,25,5.00
2013,06,28,05,26,6.70
2013,06,28,05,27,7.00
2013,06,28,05,28,7.30
2013,06,28,05,29,9.00
2013,06,28,05,30,9.00
2013,06,28,05,31,10.10
2013,06,28,05,32,11.70
2013,06,28,05,33,12.00
2013,06,28,05,34,12.10
2013,06,28,05,35,14.40
2013,06,28,05,36,16.00
2013,06,28,05,37,16.90
2013,06,28,05,38,18.60
2013,06,28,05,39,20.40
2013,06,28,05,40,21.00
2013,06,28,05,41,23.10
2013,06,28,05,42,25.00
2013,06,28,05,43,25.30
2013,06,28,05,44,26.00
2013,06,28,05,45,26.00
2013,06,28,05,46,27.40
2013,06,28,05,47,28.00
2013,06,28,05,48,30.10
2013,06,28,05,49,32.00
2013,06,28,05,50,33.00
2013,06,28,05,51,35.90
2013,06,28,05,52,37.00
2013,06,28,05,53,35.60
2013,06,28,05,54,33.30
2013,06,28,05,55,33.00
2013,06,28,05,56,33.00
2013,06,28,05,57,33.00
2013,06,28,05,58,33.00
2013,06,28,05,59,33.00
2013,06,28,06,00,33.00
2013,06,28,06,01,33.00
2013,06,28,06,02,35.10
2013,06,28,06,03,37.40
2013,06,28,06,04,39.00
2013,06,28,06,05,38.10
2013,06,28,06,06,34.70
2013,06,28,06,07,32.30
2013,06,28,06,08,30.30
2013,06,28,06,09,26.10
2013,06,28,06,10,25.00
2013,06,28,06,11,25.00
2013,06,28,06,12,25.00
2013,06,28,06,13,25.60
2013,06,28,06,14,26.00
2013,06,28,06,15,25.20
2013,06,28,06,16,25.00
2013,06,28,06,17,25.20
2013,06,28,06,18,26.00
2013,06,28,06,19,26.90
2013,06,28,06,20,29.10
2013,06,28,06,21,30.00
2013,06,28,06,22,31.60
2013,06,28,06,23,29.90
2013,06,28,06,24,25.80
2013,06,28,06,25,24.40
2013,06,28,06,26,23.00
2013,06,28,06,27,24.10
2013,06,28,06,28,25.70
2013,06,28,06,29,27.60
2013,06,28,06,30,28.10
2013,06,28,06,31,30.40
2013,06,28,06,32,32.30
2013,06,28,06,33,33.00
2013,06,28,06,34,33.00
2013,06,28,06,35,32.30
2013,06,28,06,36,32.00
2013,06,28,06,37,32.00
2013,06,28,06,38,31.60
2013,06,28,06,39,30.00
2013,06,28,06,40,30.00
2013,06,28,06,41,31.10
2013,06,28,06,42,32.70
2013,06,28,06,43,33.00
2013,06,28,06,44,32.90
2013,06,28,06,45,31.60
2013,06,28,06,46,29.40
2013,06,28,06,47,28.00
2013,06,28,06,48,28.00
2013,06,28,06,49,26.60
2013,06,28,06,50,26.00
2013,06,28,06,51,25.10
2013,06,28,06,52,25.00
2013,06,28,06,53,25.00
2013,06,28,06,54,25.40
2013,06,28,06,55,26.00
2013,06,28,06,56,26.00
2013,06,28,06,57,27.60
2013,06,28,06,58,28.30
2013,06,28,06,59,32.50
2013,06,28,07,00,36.60
2013,06,28,07,01,43.00
2013,06,28,07,02,52.00
2013,06,28,07,03,61.00
2013,06,28,07,04,67.90
2013,06,28,07,05,76.00
2013,06,28,07,06,83.90
2013,06,28,07,07,89.60
2013,06,28,07,08,94.70
2013,06,28,07,09,98.70
2013,06,28,07,10,100.00
2013,06,28,07,11,100.00
2013,06,28,07,12,98.10
2013,06,28,07,13,98.00
2013,06,28,07,14,98.00
2013,06,28,07,15,98.90
2013,06,28,07,16,102.30
2013,06,28,07,17,106.10
2013,06,28,07,18,108.60
2013,06,28,07,19,109.00
2013,06,28,07,20,109.00
2013,06,28,07,21,108.40
2013,06,28,07,22,105.70
2013,06,28,07,23,100.50
2013,06,28,07,24,94.40
2013,06,28,07,25,90.50
2013,06,28,07,26,83.90
2013,06,28,07,27,80.60
2013,06,28,07,28,78.00
2013,06,28,07,29,74.10
2013,06,28,07,30,70.20
2013,06,28,07,31,66.10
2013,06,28,07,32,62.50
2013,06,28,07,33,62.00
2013,06,28,07,34,62.60
2013,06,28,07,35,66.30
2013,06,28,07,36,70.30
2013,06,28,07,37,72.00
2013,06,28,07,38,72.00
2013,06,28,07,39,73.70
2013,06,28,07,40,79.10
2013,06,28,07,41,83.20
2013,06,28,07,42,83.70
2013,06,28,07,43,81.30
2013,06,28,07,44,81.20
2013,06,28,07,45,85.10
2013,06,28,07,46,89.30
2013,06,28,07,47,91.20
2013,06,28,07,48,95.00
2013,06,28,07,49,95.00
2013,06,28,07,50,94.10
2013,06,28,07,51,91.30
2013,06,28,07,52,88.60
2013,06,28,07,53,83.90
2013,06,28,07,54,79.10
2013,06,28,07,55,75.60
2013,06,28,07,56,72.70
2013,06,28,07,57,66.90
2013,06,28,07,58,61.20
2013,06,28,07,59,60.00
2013,06,28,08,00,55.10
2013,06,28,08,01,54.10
2013,06,28,08,02,57.20
2013,06,28,08,03,64.60
2013,06,28,08,04,73.10
2013,06,28,08,05,77.00
2013,06,28,08,06,74.90
2013,06,28,08,07,72.30
2013,06,28,08,08,72.00
2013,06,28,08,09,72.40
2013,06,28,08,10,75.70
2013,06,28,08,11,82.20
2013,06,28,08,12,93.00
2013,06,28,08,13,111.80
2013,06,28,08,14,132.00
2013,06,28,08,15,142.40
2013,06,28,08,16,158.50
2013,06,28,08,17,172.60
2013,06,28,08,18,167.70
2013,06,28,08,19,149.40
2013,06,28,08,20,136.30
2013,06,28,08,21,136.50
2013,06,28,08,22,136.20
2013,06,28,08,23,121.80
2013,06,28,08,24,103.90
2013,06,28,08,25,95.20
2013,06,28,08,26,88.90
2013,06,28,08,27,79.60
2013,06,28,08,28,74.50
2013,06,28,08,29,75.90
2013,06,28,08,30,76.20
2013,06,28,08,31,78.20
2013,06,28,08,32,82.30
2013,06,28,08,33,83.40
2013,06,28,08,34,81.60
2013,06,28,08,35,81.00
2013,06,28,08,36,77.10
2013,06,28,08,37,77.90
2013,06,28,08,38,83.20
2013,06,28,08,39,92.00
2013,06,28,08,40,101.00
2013,06,28,08,41,104.00
2013,06,28,08,42,98.20
2013,06,28,08,43,91.40
2013,06,28,08,44,89.30
2013,06,28,08,45,80.80
2013,06,28,08,46,73.30
2013,06,28,08,47,70.00
2013,06,28,08,48,72.90
2013,06,28,08,49,78.10
2013,06,28,08,50,84.00
2013,06,28,08,51,86.40
2013,06,28,08,52,88.90
2013,06,28,08,53,94.10
2013,06,28,08,54,103.10
2013,06,28,08,55,111.10
2013,06,28,08,56,115.50
2013,06,28,08,57,116.20
2013,06,28,08,58,118.60
2013,06,28,08,59,121.70
2013,06,28,09,00,123.00
2013,06,28,09,01,121.20
2013,06,28,09,02,122.10
2013,06,28,09,03,130.40
2013,06,28,09,04,136.60
2013,06,28,09,05,134.40
2013,06,28,09,06,131.40
2013,06,28,09,07,129.10
2013,06,28,09,08,128.00
2013,06,28,09,09,127.30
2013,06,28,09,10,125.30
2013,06,28,09,11,125.40
2013,06,28,09,12,130.40
2013,06,28,09,13,129.20
2013,06,28,09,14,117.60
2013,06,28,09,15,104.70
2013,06,28,09,16,96.60
2013,06,28,09,17,95.00
2013,06,28,09,18,94.60
2013,06,28,09,19,89.90
2013,06,28,09,20,85.40
2013,06,28,09,21,84.00
2013,06,28,09,22,87.40
2013,06,28,09,23,93.40
2013,06,28,09,24,99.30
2013,06,28,09,25,102.10
2013,06,28,09,26,106.20
2013,06,28,09,27,112.00
2013,06,28,09,28,114.00
2013,06,28,09,29,124.60
2013,06,28,09,30,143.60
2013,06,28,09,31,166.00
2013,06,28,09,32,198.60
2013,06,28,09,33,227.10
2013,06,28,09,34,245.20
2013,06,28,09,35,249.10
2013,06,28,09,36,241.70
2013,06,28,09,37,226.00
2013,06,28,09,38,211.10
2013,06,28,09,39,201.60
2013,06,28,09,40,190.50
2013,06,28,09,41,178.20
2013,06,28,09,42,173.90
2013,06,28,09,43,186.00
2013,06,28,09,44,207.50
2013,06,28,09,45,217.10
2013,06,28,09,46,213.70
2013,06,28,09,47,205.20
2013,06,28,09,48,205.50
2013,06,28,09,49,220.20
2013,06,28,09,50,233.60
2013,06,28,09,51,234.90
2013,06,28,09,52,235.70
2013,06,28,09,53,238.90
2013,06,28,09,54,239.80
2013,06,28,09,55,244.00
2013,06,28,09,56,246.90
2013,06,28,09,57,249.20
2013,06,28,09,58,248.60
2013,06,28,09,59,244.70
2013,06,28,10,00,241.00
2013,06,28,10,01,238.40
2013,06,28,10,02,236.30
2013,06,28,10,03,236.60
2013,06,28,10,04,232.60
2013,06,28,10,05,229.30
2013,06,28,10,06,219.90
2013,06,28,10,07,209.00
2013,06,28,10,08,206.60
2013,06,28,10,09,211.40
2013,06,28,10,10,216.00
2013,06,28,10,11,216.00
2013,06,28,10,12,212.40
2013,06,28,10,13,209.30
2013,06,28,10,14,205.90
2013,06,28,10,15,204.60
2013,06,28,10,16,208.40
2013,06,28,10,17,213.30
2013,06,28,10,18,218.30
2013,06,28,10,19,222.20
2013,06,28,10,20,223.00
2013,06,28,10,21,225.10
2013,06,28,10,22,227.40
2013,06,28,10,23,230.00
2013,06,28,10,24,233.80
2013,06,28,10,25,240.00
2013,06,28,10,26,246.40
2013,06,28,10,27,250.50
2013,06,28,10,28,250.90
2013,06,28,10,29,250.00
2013,06,28,10,30,250.00
2013,06,28,10,31,252.20
2013,06,28,10,32,256.70
2013,06,28,10,33,259.40
2013,06,28,10,34,261.60
2013,06,28,10,35,259.80
2013,06,28,10,36,255.00
2013,06,28,10,37,255.00
2013,06,28,10,38,256.30
2013,06,28,10,39,261.40
2013,06,28,10,40,269.50
2013,06,28,10,41,281.00
2013,06,28,10,42,294.90
2013,06,28,10,43,308.10
2013,06,28,10,44,319.10
2013,06,28,10,45,336.10
2013,06,28,10,46,357.70
2013,06,28,10,47,367.60
2013,06,28,10,48,381.00
2013,06,28,10,49,388.20
2013,06,28,10,50,393.20
2013,06,28,10,51,389.40
2013,06,28,10,52,380.40
2013,06,28,10,53,372.20
2013,06,28,10,54,378.70
2013,06,28,10,55,391.80
2013,06,28,10,56,390.70
2013,06,28,10,57,348.00
2013,06,28,10,58,331.00
2013,06,28,10,59,285.60
2013,06,28,11,00,269.90
2013,06,28,11,01,264.90
2013,06,28,11,02,260.70
2013,06,28,11,03,258.60
2013,06,28,11,04,266.10
2013,06,28,11,05,278.50
2013,06,28,11,06,290.70
2013,06,28,11,07,287.60
2013,06,28,11,08,269.20
2013,06,28,11,09,254.60
2013,06,28,11,10,245.50
2013,06,28,11,11,238.60
2013,06,28,11,12,237.70
2013,06,28,11,13,240.80
2013,06,28,11,14,241.90
2013,06,28,11,15,238.20
2013,06,28,11,16,234.50
2013,06,28,11,17,234.20
2013,06,28,11,18,237.80
2013,06,28,11,19,242.60
2013,06,28,11,20,247.80
2013,06,28,11,21,248.90
2013,06,28,11,22,245.20
2013,06,28,11,23,239.90
2013,06,28,11,24,237.20
2013,06,28,11,25,239.00
2013,06,28,11,26,239.70
2013,06,28,11,27,240.00
2013,06,28,11,28,237.20
2013,06,28,11,29,233.10
2013,06,28,11,30,232.00
2013,06,28,11,31,236.20
2013,06,28,11,32,241.60
2013,06,28,11,33,244.00
2013,06,28,11,34,242.60
2013,06,28,11,35,238.60
2013,06,28,11,36,232.20
2013,06,28,11,37,225.90
2013,06,28,11,38,220.90
2013,06,28,11,39,217.00
2013,06,28,11,40,213.00
2013,06,28,11,41,206.70
2013,06,28,11,42,195.50
2013,06,28,11,43,190.90
2013,06,28,11,44,186.70
2013,06,28,11,45,185.30
2013,06,28,11,46,189.40
2013,06,28,11,47,196.60
2013,06,28,11,48,203.10
2013,06,28,11,49,212.30
2013,06,28,11,50,230.30
2013,06,28,11,51,253.40
2013,06,28,11,52,268.80
2013,06,28,11,53,271.00
2013,06,28,11,54,263.90
2013,06,28,11,55,253.40
2013,06,28,11,56,241.60
2013,06,28,11,57,232.00
2013,06,28,11,58,225.90
2013,06,28,11,59,219.80
2013,06,28,12,00,213.40
2013,06,28,12,01,209.60
2013,06,28,12,02,206.50
2013,06,28,12,03,203.70
2013,06,28,12,04,199.90
2013,06,28,12,05,199.00
2013,06,28,12,06,207.90
2013,06,28,12,07,225.30
2013,06,28,12,08,235.60
2013,06,28,12,09,239.90
2013,06,28,12,10,241.00
2013,06,28,12,11,242.40
2013,06,28,12,12,248.80
2013,06,28,12,13,268.20
2013,06,28,12,14,297.40
2013,06,28,12,15,327.30
2013,06,28,12,16,357.10
2013,06,28,12,17,381.00
2013,06,28,12,18,403.70
2013,06,28,12,19,405.00
2013,06,28,12,20,408.60
2013,06,28,12,21,416.60
2013,06,28,12,22,409.30
2013,06,28,12,23,405.10
2013,06,28,12,24,399.30
2013,06,28,12,25,384.60
2013,06,28,12,26,374.20
2013,06,28,12,27,371.30
2013,06,28,12,28,371.50
2013,06,28,12,29,357.90
2013,06,28,12,30,348.10
2013,06,28,12,31,352.40
2013,06,28,12,32,364.10
2013,06,28,12,33,377.80
2013,06,28,12,34,402.20
2013,06,28,12,35,431.50
2013,06,28,12,36,445.80
2013,06,28,12,37,450.80
2013,06,28,12,38,441.90
2013,06,28,12,39,444.00
2013,06,28,12,40,447.70
2013,06,28,12,41,431.50
2013,06,28,12,42,412.20
2013,06,28,12,43,388.20
2013,06,28,12,44,372.90
2013,06,28,12,45,370.10
2013,06,28,12,46,369.60
2013,06,28,12,47,358.70
2013,06,28,12,48,340.10
2013,06,28,12,49,324.10
2013,06,28,12,50,311.10
2013,06,28,12,51,302.60
2013,06,28,12,52,312.50
2013,06,28,12,53,340.30
2013,06,28,12,54,361.70
2013,06,28,12,55,370.60
2013,06,28,12,56,366.60
2013,06,28,12,57,357.10
2013,06,28,12,58,350.80
2013,06,28,12,59,342.90
2013,06,28,13,00,329.30
2013,06,28,13,01,310.40
2013,06,28,13,02,279.00
2013,06,28,13,03,247.90
2013,06,28,13,04,228.80
2013,06,28,13,05,223.90
2013,06,28,13,06,227.90
2013,06,28,13,07,232.90
2013,06,28,13,08,232.30
2013,06,28,13,09,225.20
2013,06,28,13,10,222.60
2013,06,28,13,11,211.60
2013,06,28,13,12,201.40
2013,06,28,13,13,192.10
2013,06,28,13,14,192.10
2013,06,28,13,15,198.00
2013,06,28,13,16,201.80
2013,06,28,13,17,199.80
2013,06,28,13,18,198.30
2013,06,28,13,19,196.10
2013,06,28,13,20,196.20
2013,06,28,13,21,203.50
2013,06,28,13,22,210.30
2013,06,28,13,23,208.00
2013,06,28,13,24,196.30
2013,06,28,13,25,184.80
2013,06,28,13,26,179.00
2013,06,28,13,27,170.80
2013,06,28,13,28,158.60
2013,06,28,13,29,147.70
2013,06,28,13,30,138.70
2013,06,28,13,31,132.80
2013,06,28,13,32,126.40
2013,06,28,13,33,121.70
2013,06,28,13,34,120.00
2013,06,28,13,35,120.00
2013,06,28,13,36,118.30
2013,06,28,13,37,118.10
2013,06,28,13,38,121.00
2013,06,28,13,39,127.40
2013,06,28,13,40,136.20
2013,06,28,13,41,145.10
2013,06,28,13,42,153.00
2013,06,28,13,43,160.80
2013,06,28,13,44,172.10
2013,06,28,13,45,188.60
2013,06,28,13,46,207.50
2013,06,28,13,47,223.60
2013,06,28,13,48,236.40
2013,06,28,13,49,249.70
2013,06,28,13,50,271.00
2013,06,28,13,51,291.60
2013,06,28,13,52,291.70
2013,06,28,13,53,282.40
2013,06,28,13,54,281.00
2013,06,28,13,55,293.30
2013,06,28,13,56,299.90
2013,06,28,13,57,289.90
2013,06,28,13,58,287.20
2013,06,28,13,59,289.00
2013,06,28,14,00,286.00
2013,06,28,14,01,284.60
2013,06,28,14,02,269.50
2013,06,28,14,03,256.90
2013,06,28,14,04,255.00
2013,06,28,14,05,254.50
2013,06,28,14,06,245.70
2013,06,28,14,07,226.40
2013,06,28,14,08,223.70
2013,06,28,14,09,240.50
2013,06,28,14,10,268.60
2013,06,28,14,11,296.70
2013,06,28,14,12,309.60
2013,06,28,14,13,324.50
2013,06,28,14,14,337.80
2013,06,28,14,15,348.40
2013,06,28,14,16,353.80
2013,06,28,14,17,363.70
2013,06,28,14,18,384.10
2013,06,28,14,19,394.00
2013,06,28,14,20,400.10
2013,06,28,14,21,420.50
2013,06,28,14,22,432.40
2013,06,28,14,23,427.90
2013,06,28,14,24,412.40
2013,06,28,14,25,388.30
2013,06,28,14,26,372.80
2013,06,28,14,27,366.80
2013,06,28,14,28,365.30
2013,06,28,14,29,359.70
2013,06,28,14,30,348.90
2013,06,28,14,31,342.10
2013,06,28,14,32,345.30
2013,06,28,14,33,354.90
2013,06,28,14,34,356.00
2013,06,28,14,35,353.70
2013,06,28,14,36,354.00
2013,06,28,14,37,344.50
2013,06,28,14,38,318.70
2013,06,28,14,39,311.00
2013,06,28,14,40,260.80
2013,06,28,14,41,250.80
2013,06,28,14,42,250.30
2013,06,28,14,43,252.80
2013,06,28,14,44,260.30
2013,06,28,14,45,264.70
2013,06,28,14,46,260.90
2013,06,28,14,47,248.70
2013,06,28,14,48,231.00
2013,06,28,14,49,217.60
2013,06,28,14,50,212.10
2013,06,28,14,51,212.20
2013,06,28,14,52,215.10
2013,06,28,14,53,216.00
2013,06,28,14,54,214.30
2013,06,28,14,55,217.90
2013,06,28,14,56,226.70
2013,06,28,14,57,230.90
2013,06,28,14,58,234.30
2013,06,28,14,59,248.10
2013,06,28,15,00,282.00
2013,06,28,15,01,328.20
2013,06,28,15,02,354.10
2013,06,28,15,03,365.10
2013,06,28,15,04,372.40
2013,06,28,15,05,372.20
2013,06,28,15,06,372.40
2013,06,28,15,07,377.30
2013,06,28,15,08,348.10
2013,06,28,15,09,318.10
2013,06,28,15,10,297.40
2013,06,28,15,11,274.30
2013,06,28,15,12,255.00
2013,06,28,15,13,248.60
2013,06,28,15,14,249.70
2013,06,28,15,15,250.00
2013,06,28,15,16,251.10
2013,06,28,15,17,256.70
2013,06,28,15,18,259.00
2013,06,28,15,19,253.10
2013,06,28,15,20,243.50
2013,06,28,15,21,236.70
2013,06,28,15,22,236.50
2013,06,28,15,23,241.00
2013,06,28,15,24,244.60
2013,06,28,15,25,255.30
2013,06,28,15,26,262.40
2013,06,28,15,27,262.60
2013,06,28,15,28,258.60
2013,06,28,15,29,255.30
2013,06,28,15,30,258.00
2013,06,28,15,31,255.50
2013,06,28,15,32,246.20
2013,06,28,15,33,233.70
2013,06,28,15,34,216.00
2013,06,28,15,35,200.70
2013,06,28,15,36,197.40
2013,06,28,15,37,200.00
2013,06,28,15,38,200.00
2013,06,28,15,39,201.90
2013,06,28,15,40,209.50
2013,06,28,15,41,218.10
2013,06,28,15,42,220.90
2013,06,28,15,43,220.30
2013,06,28,15,44,212.80
2013,06,28,15,45,208.30
2013,06,28,15,46,205.60
2013,06,28,15,47,201.00
2013,06,28,15,48,193.90
2013,06,28,15,49,186.90
2013,06,28,15,50,186.20
2013,06,28,15,51,188.40
2013,06,28,15,52,189.30
2013,06,28,15,53,185.60
2013,06,28,15,54,178.80
2013,06,28,15,55,169.50
2013,06,28,15,56,161.00
2013,06,28,15,57,152.60
2013,06,28,15,58,148.80
2013,06,28,15,59,148.30
2013,06,28,16,00,148.50
2013,06,28,16,01,145.60
2013,06,28,16,02,141.80
2013,06,28,16,03,143.60
2013,06,28,16,04,151.50
2013,06,28,16,05,157.00
2013,06,28,16,06,161.10
2013,06,28,16,07,161.60
2013,06,28,16,08,160.00
2013,06,28,16,09,154.90
2013,06,28,16,10,151.30
2013,06,28,16,11,155.70
2013,06,28,16,12,164.90
2013,06,28,16,13,175.10
2013,06,28,16,14,185.20
2013,06,28,16,15,195.30
2013,06,28,16,16,206.20
2013,06,28,16,17,215.00
2013,06,28,16,18,221.70
2013,06,28,16,19,230.50
2013,06,28,16,20,237.00
2013,06,28,16,21,235.80
2013,06,28,16,22,232.00
2013,06,28,16,23,235.60
2013,06,28,16,24,238.70
2013,06,28,16,25,243.00
2013,06,28,16,26,244.00
2013,06,28,16,27,241.20
2013,06,28,16,28,229.00
2013,06,28,16,29,212.80
2013,06,28,16,30,199.80
2013,06,28,16,31,193.60
2013,06,28,16,32,197.90
2013,06,28,16,33,209.80
2013,06,28,16,34,222.40
2013,06,28,16,35,228.40
2013,06,28,16,36,230.00
2013,06,28,16,37,227.80
2013,06,28,16,38,221.00
2013,06,28,16,39,202.30
2013,06,28,16,40,184.70
2013,06,28,16,41,167.20
2013,06,28,16,42,153.80
2013,06,28,16,43,147.20
2013,06,28,16,44,143.10
2013,06,28,16,45,141.20
2013,06,28,16,46,138.90
2013,06,28,16,47,137.40
2013,06,28,16,48,139.00
2013,06,28,16,49,139.00
2013,06,28,16,50,136.60
2013,06,28,16,51,131.40
2013,06,28,16,52,127.40
2013,06,28,16,53,126.60
2013,06,28,16,54,123.00
2013,06,28,16,55,123.70
2013,06,28,16,56,125.00
2013,06,28,16,57,126.20
2013,06,28,16,58,127.00
2013,06,28,16,59,129.60
2013,06,28,17,00,135.40
2013,06,28,17,01,140.20
2013,06,28,17,02,144.00
2013,06,28,17,03,141.60
2013,06,28,17,04,136.00
2013,06,28,17,05,132.60
2013,06,28,17,06,128.60
2013,06,28,17,07,130.50
2013,06,28,17,08,135.00
2013,06,28,17,09,133.90
2013,06,28,17,10,131.00
2013,06,28,17,11,131.20